Weather History for KSOW - February, 2013

Change the Weather History Date:

Friday, February 15, 2013

  Actual Average (KINW) Record (KINW)
Temperature  
Mean Temperature 30 °F 40 °F  
Max Temperature 42 °F 56 °F 79 °F (2014)
Min Temperature 17 °F 25 °F 6 °F (1964)
Degree Days  
Heating Degree Days 36 25  
Month to date heating degree days 393  
Since 1 July heating degree days 3196  
Cooling Degree Days 0 0  
Month to date cooling degree days 0  
Year to date cooling degree days 0  
Moisture  
Dew Point 14 °F    
Average Humidity 56    
Maximum Humidity 86    
Minimum Humidity 25    
Precipitation  
Precipitation 0.00 in 0.01 in 0.52 in (2008)
Month to date precipitation 0.25  
Year to date precipitation 0.77  
Sea Level Pressure  
Sea Level Pressure 30.35 in    
Wind  
Wind Speed 6 mph (NE)    
Max Wind Speed 16 mph    
Max Gust Speed 25 mph    
Visibility 10 miles    
Events      
T = Trace of Precipitation, MM = Missing Value Source: NWS Daily Summary

Daily Weather History Graph

Daily Weather History Graph

Search for Another Location

Airport or City:

Trip Planner

Search our weather history database for the weather conditions in past years. The results will help you decide how hot, cold, wet, or windy it might be!

Date:

Astronomy

Feb. 15, 2013 Rise Set
Actual Time 7:04 AM MST 6:04 PM MST
Civil Twilight 6:39 AM MST 6:29 PM MST
Nautical Twilight 6:09 AM MST 6:59 PM MST
Astronomical Twilight 5:40 AM MST 7:28 PM MST
Moon 10:00 AM MST (2/15) 11:49 PM MST (2/15)
Length of Visible Light 11h 50m
Length of Day
10h 59m
Waxing Crescent, 31% of the Moon is Illuminated
Feb 15
Waxing Crescent
Feb 17
First Quarter
Feb 25
Full
Mar 4
Last Quarter
Mar 11
New

Hourly Weather History & Observations

Time (MST) Temp. Windchill Dew Point Humidity Pressure Visibility Wind Dir Wind Speed Gust Speed Precip Events Conditions
12:15 AM 24.8 °F 17.9 °F 17.6 °F 74% 30.28 in 10.0 mi ENE 5.8 mph - N/A   Clear
12:35 AM 26.6 °F 20.0 °F 17.6 °F 69% 30.28 in 10.0 mi ENE 5.8 mph - N/A   Clear
12:55 AM 24.8 °F 20.5 °F 17.6 °F 74% 30.29 in 10.0 mi NE 3.5 mph - N/A   Clear
1:15 AM 24.8 °F 19.1 °F 17.6 °F 74% 30.29 in 10.0 mi NE 4.6 mph - N/A   Clear
1:35 AM 23.0 °F - 17.6 °F 80% 30.30 in 10.0 mi Calm Calm - N/A   Clear
1:55 AM 23.0 °F - 17.6 °F 80% 30.30 in 10.0 mi Calm Calm - N/A   Clear
2:15 AM 23.0 °F 18.4 °F 17.6 °F 80% 30.30 in 10.0 mi NNE 3.5 mph - N/A   Clear
2:35 AM 23.0 °F 18.4 °F 15.8 °F 74% 30.29 in 10.0 mi NE 3.5 mph - N/A   Clear
2:55 AM 21.2 °F 14.9 °F 15.8 °F 80% 30.29 in 10.0 mi NNE 4.6 mph - N/A   Clear
3:15 AM 21.2 °F 16.4 °F 15.8 °F 80% 30.29 in 10.0 mi NNE 3.5 mph - N/A   Clear
3:35 AM 19.4 °F 14.3 °F 15.8 °F 86% 30.28 in 10.0 mi NE 3.5 mph - N/A   Clear
3:55 AM 19.4 °F 14.3 °F 15.8 °F 86% 30.29 in 10.0 mi ENE 3.5 mph - N/A   Clear
4:15 AM 21.2 °F 13.6 °F 15.8 °F 80% 30.28 in 10.0 mi ENE 5.8 mph - N/A   Clear
4:35 AM 19.4 °F 14.3 °F 14.0 °F 80% 30.29 in 10.0 mi NNE 3.5 mph - N/A   Clear
4:55 AM 17.6 °F 12.3 °F 14.0 °F 86% 30.29 in 10.0 mi NNE 3.5 mph - N/A   Clear
5:15 AM 17.6 °F - 14.0 °F 86% 30.29 in 10.0 mi Calm Calm - N/A   Clear
5:35 AM 19.4 °F 14.3 °F 14.0 °F 80% 30.30 in 10.0 mi North 3.5 mph - N/A   Clear
5:55 AM 19.4 °F 14.3 °F 15.8 °F 86% 30.31 in 10.0 mi NE 3.5 mph - N/A   Clear
6:15 AM 19.4 °F 14.3 °F 14.0 °F 80% 30.31 in 10.0 mi East 3.5 mph - N/A   Clear
6:35 AM 17.6 °F 12.3 °F 14.0 °F 86% 30.32 in 10.0 mi East 3.5 mph - N/A   Clear
6:55 AM 19.4 °F 14.3 °F 14.0 °F 80% 30.32 in 10.0 mi NE 3.5 mph - N/A   Clear
7:15 AM 17.6 °F - 14.0 °F 86% 30.33 in 10.0 mi Calm Calm - N/A   Clear
7:35 AM 19.4 °F - 14.0 °F 80% 30.33 in 10.0 mi Calm Calm - N/A   Clear
7:55 AM 21.2 °F - 15.8 °F 80% 30.34 in 10.0 mi Calm Calm - N/A   Clear
8:15 AM 23.0 °F - 17.6 °F 80% 30.35 in 10.0 mi Calm Calm - N/A   Clear
8:35 AM 24.8 °F - 17.6 °F 74% 30.35 in 10.0 mi Calm Calm - N/A   Clear
8:55 AM 26.6 °F 21.2 °F 19.4 °F 74% 30.36 in 10.0 mi North 4.6 mph - N/A   Clear
9:15 AM 30.2 °F 25.4 °F 19.4 °F 64% 30.37 in 10.0 mi NNE 4.6 mph - N/A   Clear
9:35 AM 32.0 °F 24.2 °F 19.4 °F 60% 30.38 in 10.0 mi NNE 9.2 mph - N/A   Clear
9:55 AM 32.0 °F 24.8 °F 21.2 °F 64% 30.38 in 10.0 mi North 8.1 mph - N/A   Clear
10:15 AM 35.6 °F 29.9 °F 21.2 °F 56% 30.38 in 10.0 mi NNE 6.9 mph - N/A   Clear
10:35 AM 37.4 °F 29.8 °F 19.4 °F 48% 30.38 in 10.0 mi NNE 11.5 mph 16.1 mph N/A   Clear
10:55 AM 37.4 °F 29.8 °F 21.2 °F 52% 30.38 in 10.0 mi North 11.5 mph 16.1 mph N/A   Clear
11:15 AM 37.4 °F 28.9 °F 14.0 °F 38% 30.37 in 10.0 mi NNE 13.8 mph - N/A   Clear
11:35 AM 39.2 °F 32.5 °F 15.8 °F 39% 30.37 in 10.0 mi NNE 10.4 mph 19.6 mph N/A   Clear
11:55 AM 39.2 °F 31.2 °F 14.0 °F 36% 30.37 in 10.0 mi NNE 13.8 mph - N/A   Clear
12:15 PM 39.2 °F 32.5 °F 15.8 °F 39% 30.37 in 10.0 mi NNE 10.4 mph - N/A   Clear
12:35 PM 39.2 °F 32.0 °F 15.8 °F 39% 30.36 in 10.0 mi NNE 11.5 mph 16.1 mph N/A   Clear
12:55 PM 39.2 °F 31.2 °F 15.8 °F 39% 30.36 in 10.0 mi North 13.8 mph - N/A   Clear
1:15 PM 39.2 °F 32.0 °F 17.6 °F 42% 30.35 in 10.0 mi North 11.5 mph - N/A   Clear
1:35 PM 41.0 °F 33.9 °F 17.6 °F 39% 30.35 in 10.0 mi North 12.7 mph 16.1 mph N/A   Clear
1:55 PM 41.0 °F 33.9 °F 17.6 °F 39% 30.35 in 10.0 mi North 12.7 mph 18.4 mph N/A   Clear
2:15 PM 41.0 °F 35.2 °F 17.6 °F 39% 30.34 in 10.0 mi NNE 9.2 mph - N/A   Clear
2:35 PM 41.0 °F 34.3 °F 17.6 °F 39% 30.34 in 10.0 mi NNE 11.5 mph - N/A   Clear
2:55 PM 42.8 °F 35.8 °F 15.8 °F 34% 30.34 in 10.0 mi North 13.8 mph - N/A   Clear
3:15 PM 42.8 °F 36.6 °F 15.8 °F 34% 30.34 in 10.0 mi North 11.5 mph - N/A   Clear
3:35 PM 42.8 °F 35.8 °F 12.2 °F 29% 30.34 in 10.0 mi NNE 13.8 mph 23.0 mph N/A   Clear
3:55 PM 42.8 °F 36.2 °F 12.2 °F 29% 30.34 in 10.0 mi NNE 12.7 mph 20.7 mph N/A   Clear
4:15 PM 42.8 °F 35.1 °F 14.0 °F 31% 30.34 in 10.0 mi NNE 16.1 mph - N/A   Clear
4:35 PM 42.8 °F 36.6 °F 14.0 °F 31% 30.35 in 10.0 mi North 11.5 mph - N/A   Clear
4:55 PM 42.8 °F 35.1 °F 8.6 °F 25% 30.35 in 10.0 mi NNE 16.1 mph 25.3 mph N/A   Clear
5:15 PM 41.0 °F 34.3 °F 8.6 °F 26% 30.35 in 10.0 mi NNE 11.5 mph 25.3 mph N/A   Clear
5:35 PM 41.0 °F 33.9 °F 10.4 °F 29% 30.34 in 10.0 mi NNE 12.7 mph 18.4 mph N/A   Clear
5:55 PM 39.2 °F 32.0 °F 8.6 °F 28% 30.34 in 10.0 mi NNE 11.5 mph - N/A   Clear
6:15 PM 37.4 °F 30.8 °F 10.4 °F 33% 30.35 in 10.0 mi NNE 9.2 mph - N/A   Clear
6:35 PM 35.6 °F 29.9 °F 10.4 °F 35% 30.35 in 10.0 mi North 6.9 mph - N/A   Clear
6:55 PM 32.0 °F 25.6 °F 12.2 °F 44% 30.36 in 10.0 mi NNE 6.9 mph - N/A   Clear
7:15 PM 32.0 °F - 12.2 °F 44% 30.37 in 10.0 mi Calm Calm - N/A   Clear
7:35 PM 32.0 °F - 10.4 °F 41% 30.37 in 10.0 mi Calm Calm - N/A   Clear
7:55 PM 32.0 °F - 8.6 °F 38% 30.38 in 10.0 mi Calm Calm - N/A   Clear
8:15 PM 32.0 °F - 8.6 °F 38% 30.39 in 10.0 mi Calm Calm - N/A   Clear
8:35 PM 32.0 °F - 8.6 °F 38% 30.40 in 10.0 mi Calm Calm - N/A   Unknown
8:55 PM 32.0 °F 28.7 °F 8.6 °F 38% 30.41 in 10.0 mi East 3.5 mph - N/A   Clear
9:15 PM 32.0 °F 28.7 °F 8.6 °F 38% 30.41 in 10.0 mi East 3.5 mph - N/A   Clear
9:35 PM 26.6 °F 20.0 °F 12.2 °F 55% 30.42 in 10.0 mi East 5.8 mph - N/A   Clear
9:55 PM 28.4 °F 23.3 °F 8.6 °F 43% 30.42 in 10.0 mi East 4.6 mph - N/A   Clear
10:15 PM 28.4 °F - 8.6 °F 43% 30.43 in 10.0 mi Calm Calm - N/A   Clear
10:35 PM 28.4 °F 23.3 °F 8.6 °F 43% 30.43 in 10.0 mi ENE 4.6 mph - N/A   Clear
10:55 PM 26.6 °F 21.2 °F 10.4 °F 51% 30.43 in 10.0 mi East 4.6 mph - N/A   Clear
11:15 PM 26.6 °F 21.2 °F 10.4 °F 51% 30.43 in 10.0 mi East 4.6 mph - N/A   Clear
11:35 PM 26.6 °F 22.6 °F 8.6 °F 47% 30.43 in 10.0 mi NE 3.5 mph - N/A   Clear
11:55 PM 24.8 °F 17.9 °F 10.4 °F 54% 30.42 in 10.0 mi East 5.8 mph - N/A   Clear